Port Isabel, TX

12:56 AM CDT on April 21, 2018 (GMT -0500)
Port Isabel-Cameron County

Weather History for KPIL - April, 2014

Change the Weather History Date:

Tuesday, April 15, 2014

  Actual Average (KBRO) Record (KBRO)
Temperature  
Mean Temperature 58 °F -  
Max Temperature 66 °F 81 °F 97 °F (1879)
Min Temperature 53 °F 64 °F 37 °F (1903)
Degree Days  
Heating Degree Days 6    
Growing Degree Days 8 (Base 50)    
Moisture  
Dew Point 37 °F    
Average Humidity 45    
Maximum Humidity 62    
Minimum Humidity 29    
Precipitation  
Precipitation 0.00 in - - ()
Sea Level Pressure  
Sea Level Pressure 30.24 in    
Wind  
Wind Speed 19 mph (NNE)    
Max Wind Speed 26 mph    
Max Gust Speed 37 mph    
Visibility 10 miles    
Events Rain    
Averages and records for this station are not official NWS values.
T = Trace of Precipitation, MM = Missing Value Source: NWS Daily Summary

Daily Weather History Graph

Daily Weather History Graph

Search for Another Location

Airport or City:

Astronomy

Apr. 15, 2014 Rise Set
Actual Time 7:06 AM CDT 7:53 PM CDT
Civil Twilight 6:42 AM CDT 8:16 PM CDT
Nautical Twilight 6:14 AM CDT 8:44 PM CDT
Astronomical Twilight 5:46 AM CDT 9:12 PM CDT
Moon 8:31 PM CDT (4/15) 7:16 AM CDT (4/15)
Length of Visible Light 13h 34m
Length of Day
12h 46m
Full, 100% of the Moon is Illuminated
Apr 15
Full
Apr 22
Last Quarter
Apr 29
New
May 6
First Quarter
May 14
Full

Hourly Weather History & Observations

Time (CDT) Temp. Dew Point Humidity Pressure Visibility Wind Dir Wind Speed Gust Speed Precip Events Conditions
12:53 AM 61.0 °F 45.0 °F 56% 30.16 in 10.0 mi North 26.5 mph 36.8 mph 0.00 in Rain Light Rain
1:53 AM 59.0 °F 43.0 °F 55% 30.20 in 10.0 mi North 20.7 mph 29.9 mph 0.00 in Rain Light Rain
2:53 AM 59.0 °F 41.0 °F 51% 30.22 in 10.0 mi North 23.0 mph 29.9 mph 0.00 in Rain Light Rain
3:53 AM 57.9 °F 39.0 °F 49% 30.22 in 10.0 mi North 24.2 mph 31.1 mph 0.00 in Rain Light Rain
4:53 AM 55.9 °F 37.0 °F 49% 30.24 in 10.0 mi NNW 19.6 mph 27.6 mph 0.00 in Rain Light Rain
5:53 AM 54.0 °F 36.0 °F 51% 30.27 in 10.0 mi NNW 17.3 mph - 0.00 in Rain Light Rain
6:53 AM 53.1 °F 35.1 °F 50% 30.29 in 10.0 mi NNW 17.3 mph 23.0 mph 0.00 in   Clear
7:53 AM 53.1 °F 36.0 °F 52% 30.30 in 9.0 mi NNW 19.6 mph 25.3 mph N/A   Clear
8:53 AM 55.9 °F 37.0 °F 49% 30.33 in 9.0 mi NNW 17.3 mph 23.0 mph N/A   Clear
9:53 AM 59.0 °F 39.0 °F 48% 30.34 in 9.0 mi North 23.0 mph 29.9 mph 0.00 in   Clear
10:53 AM 60.1 °F 37.9 °F 44% 30.35 in 10.0 mi North 21.9 mph 31.1 mph 0.00 in Rain Light Rain
11:53 AM 62.1 °F 37.0 °F 39% 30.35 in 9.0 mi North 19.6 mph 28.8 mph 0.00 in   Clear
12:53 PM 62.1 °F 33.1 °F 34% 30.32 in 9.0 mi NNE 16.1 mph 29.9 mph 0.00 in   Clear
1:53 PM 63.0 °F 34.0 °F 34% 30.28 in 9.0 mi NNE 21.9 mph 29.9 mph N/A   Clear
2:53 PM 64.9 °F 32.0 °F 29% 30.25 in 9.0 mi NNE 16.1 mph 28.8 mph 0.00 in   Clear
3:53 PM 63.0 °F 30.0 °F 29% 30.22 in 9.0 mi NNE 18.4 mph 26.5 mph N/A   Clear
4:53 PM 64.0 °F 33.1 °F 31% 30.19 in 9.0 mi NNE 18.4 mph 24.2 mph 0.00 in   Clear
5:53 PM 63.0 °F 35.1 °F 35% 30.19 in 9.0 mi NE 12.7 mph 20.7 mph 0.00 in   Clear
6:53 PM 61.0 °F 35.1 °F 38% 30.19 in 9.0 mi NE 10.4 mph - N/A   Clear
7:53 PM 57.0 °F 37.0 °F 47% 30.18 in 9.0 mi NE 8.1 mph - N/A   Clear
8:53 PM 57.0 °F 37.0 °F 47% 30.19 in 10.0 mi ENE 6.9 mph - N/A   Clear
9:53 PM 55.9 °F 39.0 °F 53% 30.20 in 10.0 mi ENE 8.1 mph - N/A   Clear
10:53 PM 55.9 °F 39.9 °F 55% 30.20 in 10.0 mi East 8.1 mph - N/A   Clear
11:53 PM 55.0 °F 42.1 °F 62% 30.19 in 10.0 mi East 5.8 mph - N/A   Clear